AXB219 VOHS-VOMM

Flight info

Callsign AXB219
Flight time 0h 51m
Altitude 31000
Route HIA V4 MMV
Aircraft B38M/M-SDE1FGHILORVWXY/HB1

Departure

Time 2026-04-30 06:42
Airport Rajiv Gandhi International Airport (VOHS)

Arrival

Time 2026-04-30 07:33
Airport Chennai International Airport (VOMM)
Time Latitude Longitude Altitude Speed Heading
2026-04-30 06:29 17.23333 78.43102 1985 ft 0 kts 90°
2026-04-30 06:30 17.23333 78.43104 1982 ft 1 kts 90°
2026-04-30 06:30 17.23332 78.43122 1985 ft 4 kts 96°
2026-04-30 06:30 17.23317 78.43151 1983 ft 6 kts 138°
2026-04-30 06:30 17.23270 78.43161 1984 ft 8 kts 179°
2026-04-30 06:31 17.23201 78.43162 1982 ft 11 kts 179°
2026-04-30 06:31 17.23117 78.43172 1983 ft 13 kts 150°
2026-04-30 06:31 17.23087 78.43260 1981 ft 15 kts 94°
2026-04-30 06:31 17.23089 78.43377 1981 ft 17 kts 90°
2026-04-30 06:32 17.23090 78.43514 1982 ft 20 kts 89°
2026-04-30 06:32 17.23091 78.43665 1982 ft 22 kts 89°
2026-04-30 06:32 17.23094 78.43837 1982 ft 25 kts 88°
2026-04-30 06:32 17.23097 78.44027 1983 ft 27 kts 89°
2026-04-30 06:33 17.23100 78.44233 1984 ft 29 kts 88°
2026-04-30 06:33 17.23053 78.44303 1985 ft 12 kts 173°
2026-04-30 06:33 17.23016 78.44304 1982 ft 0 kts 179°
2026-04-30 06:40 17.23014 78.44304 1982 ft 1 kts 179°
2026-04-30 06:40 17.22988 78.44305 1982 ft 6 kts 179°
2026-04-30 06:40 17.22926 78.44293 1983 ft 12 kts 210°
2026-04-30 06:40 17.22895 78.44203 1983 ft 16 kts 268°
2026-04-30 06:41 17.22893 78.44009 1982 ft 50 kts 270°
2026-04-30 06:41 17.22887 78.43438 1983 ft 105 kts 268°
2026-04-30 06:41 17.22872 78.42505 1985 ft 150 kts 270°
2026-04-30 06:41 17.22838 78.41314 2199 ft 176 kts 269°
2026-04-30 06:42 17.22762 78.39935 2554 ft 199 kts 268°
2026-04-30 06:42 17.22536 78.38455 3059 ft 218 kts 249°
2026-04-30 06:42 17.21474 78.37236 3406 ft 242 kts 212°
2026-04-30 06:42 17.19923 78.36442 3813 ft 253 kts 209°
2026-04-30 06:43 17.18360 78.35557 4345 ft 255 kts 211°
2026-04-30 06:43 17.16837 78.34637 4987 ft 257 kts 213°
2026-04-30 06:43 17.15298 78.33667 5637 ft 259 kts 212°
2026-04-30 06:43 17.13557 78.33086 6239 ft 266 kts 186°
2026-04-30 06:44 17.11701 78.33060 6816 ft 270 kts 181°
2026-04-30 06:44 17.09818 78.33074 6928 ft 271 kts 181°
2026-04-30 06:44 17.07959 78.33400 7270 ft 274 kts 157°
2026-04-30 06:44 17.06383 78.34561 7849 ft 281 kts 133°
2026-04-30 06:45 17.05081 78.36060 8593 ft 284 kts 133°
2026-04-30 06:45 17.03685 78.37601 8884 ft 298 kts 134°
2026-04-30 06:45 17.02240 78.39177 8924 ft 303 kts 134°
2026-04-30 06:45 17.00771 78.40779 8936 ft 305 kts 134°
2026-04-30 06:46 16.99301 78.42381 8949 ft 306 kts 134°
2026-04-30 06:46 16.97826 78.43985 8947 ft 306 kts 134°
2026-04-30 06:46 16.96347 78.45593 9040 ft 307 kts 134°
2026-04-30 06:46 16.94876 78.47192 9886 ft 305 kts 134°
2026-04-30 06:47 16.93379 78.48819 10382 ft 318 kts 134°
2026-04-30 06:47 16.91801 78.50526 10751 ft 334 kts 134°
2026-04-30 06:47 16.90162 78.52297 11265 ft 343 kts 134°
2026-04-30 06:47 16.88503 78.54097 12055 ft 344 kts 134°
2026-04-30 06:48 16.86833 78.55910 12792 ft 349 kts 134°
2026-04-30 06:48 16.85145 78.57742 13572 ft 352 kts 134°
2026-04-30 06:48 16.83459 78.59573 14267 ft 356 kts 134°
2026-04-30 06:48 16.81730 78.61451 14941 ft 361 kts 134°
2026-04-30 06:49 16.79974 78.63357 15620 ft 365 kts 134°
2026-04-30 06:49 16.78205 78.65275 16286 ft 369 kts 133°
2026-04-30 06:49 16.76413 78.67218 16927 ft 373 kts 133°
2026-04-30 06:49 16.74607 78.69175 17542 ft 377 kts 133°
2026-04-30 06:50 16.72777 78.71159 18159 ft 382 kts 133°
2026-04-30 06:50 16.70918 78.73170 18703 ft 385 kts 133°
2026-04-30 06:50 16.69050 78.75193 19268 ft 388 kts 133°
2026-04-30 06:50 16.67200 78.77197 19810 ft 390 kts 134°
2026-04-30 06:51 16.65542 78.78991 20304 ft 393 kts 134°
2026-04-30 06:52 16.63735 78.80946 20817 ft 396 kts 134°
2026-04-30 06:52 16.61816 78.83022 21362 ft 399 kts 134°
2026-04-30 06:52 16.59885 78.85111 21881 ft 402 kts 134°
2026-04-30 06:53 16.57936 78.87217 22407 ft 405 kts 134°
2026-04-30 06:53 16.55971 78.89341 22924 ft 408 kts 134°
2026-04-30 06:53 16.53999 78.91473 23469 ft 410 kts 135°
2026-04-30 06:53 16.52003 78.93629 23889 ft 413 kts 135°
2026-04-30 06:54 16.49995 78.95798 24298 ft 417 kts 135°
2026-04-30 06:54 16.47973 78.97982 24704 ft 420 kts 135°
2026-04-30 06:54 16.45938 79.00178 25094 ft 423 kts 135°
2026-04-30 06:54 16.43886 79.02392 25480 ft 427 kts 135°
2026-04-30 06:55 16.41832 79.04608 25862 ft 430 kts 135°
2026-04-30 06:55 16.39750 79.06852 26227 ft 433 kts 135°
2026-04-30 06:55 16.37648 79.09118 26578 ft 436 kts 135°
2026-04-30 06:55 16.35531 79.11400 26927 ft 439 kts 135°
2026-04-30 06:56 16.33398 79.13697 27284 ft 442 kts 135°
2026-04-30 06:56 16.31259 79.16001 27641 ft 445 kts 135°
2026-04-30 06:56 16.29098 79.18328 27960 ft 448 kts 135°
2026-04-30 06:56 16.26921 79.20670 28289 ft 451 kts 135°
2026-04-30 06:57 16.24730 79.23028 28625 ft 454 kts 135°
2026-04-30 06:57 16.22525 79.25400 28939 ft 457 kts 135°
2026-04-30 06:57 16.20303 79.27788 29249 ft 460 kts 135°
2026-04-30 06:57 16.18072 79.30186 29572 ft 463 kts 135°
2026-04-30 06:58 16.15826 79.32599 29862 ft 466 kts 135°
2026-04-30 06:58 16.13563 79.35029 30127 ft 469 kts 135°
2026-04-30 06:58 16.11289 79.37471 30396 ft 470 kts 135°
2026-04-30 06:58 16.09013 79.39913 30670 ft 472 kts 135°
2026-04-30 06:59 16.06748 79.42342 30826 ft 476 kts 135°
2026-04-30 06:59 16.02138 79.47285 30832 ft 476 kts 135°
2026-04-30 07:00 15.97524 79.52229 30828 ft 476 kts 135°
2026-04-30 07:00 15.92912 79.57168 30824 ft 476 kts 135°
2026-04-30 07:01 15.88296 79.62108 30813 ft 476 kts 135°
2026-04-30 07:01 15.83682 79.67042 30811 ft 475 kts 135°
2026-04-30 07:02 15.79072 79.71969 30804 ft 475 kts 135°
2026-04-30 07:02 15.74493 79.76858 30804 ft 475 kts 135°
2026-04-30 07:03 15.69881 79.81780 30805 ft 475 kts 135°
2026-04-30 07:03 15.65270 79.86696 30795 ft 475 kts 135°
2026-04-30 07:04 15.60634 79.91592 30789 ft 475 kts 140°
2026-04-30 07:04 15.57958 79.93536 30795 ft 469 kts 155°
2026-04-30 07:04 15.54911 79.94678 30786 ft 463 kts 172°
2026-04-30 07:05 15.45668 79.97367 30793 ft 470 kts 157°
2026-04-30 07:05 15.42590 79.98369 30793 ft 460 kts 176°
2026-04-30 07:05 15.39403 79.98686 30790 ft 461 kts 175°
2026-04-30 07:06 15.33114 79.99832 30796 ft 462 kts 172°
2026-04-30 07:06 15.26782 80.01092 30796 ft 462 kts 172°
2026-04-30 07:07 15.20475 80.02371 30795 ft 461 kts 172°
2026-04-30 07:07 15.14180 80.03649 30801 ft 461 kts 172°
2026-04-30 07:08 15.07888 80.04927 30801 ft 460 kts 172°
2026-04-30 07:08 15.01637 80.06195 30804 ft 459 kts 172°
2026-04-30 07:09 14.95371 80.07466 30804 ft 459 kts 172°
2026-04-30 07:09 14.89117 80.08734 30808 ft 458 kts 172°
2026-04-30 07:10 14.82869 80.09999 30807 ft 457 kts 172°
2026-04-30 07:10 14.76623 80.11263 30808 ft 456 kts 172°
2026-04-30 07:11 14.70396 80.12523 30810 ft 456 kts 172°
2026-04-30 07:11 14.64173 80.13781 30808 ft 455 kts 172°
2026-04-30 07:12 14.58037 80.15022 30833 ft 435 kts 172°
2026-04-30 07:12 14.55108 80.15613 30733 ft 422 kts 172°
2026-04-30 07:12 14.52252 80.16190 30418 ft 417 kts 172°
2026-04-30 07:13 14.49406 80.16764 29919 ft 417 kts 172°
2026-04-30 07:13 14.46557 80.17339 29329 ft 417 kts 172°
2026-04-30 07:13 14.43721 80.17912 28825 ft 414 kts 172°
2026-04-30 07:13 14.40912 80.18478 28382 ft 410 kts 172°
2026-04-30 07:14 14.38163 80.19033 27933 ft 406 kts 172°
2026-04-30 07:14 14.35394 80.19591 27474 ft 403 kts 172°
2026-04-30 07:14 14.32647 80.20144 27022 ft 400 kts 173°
2026-04-30 07:14 14.29928 80.20692 26569 ft 397 kts 172°
2026-04-30 07:15 14.27219 80.21238 26123 ft 395 kts 173°
2026-04-30 07:15 14.24524 80.21781 25674 ft 392 kts 173°
2026-04-30 07:15 14.22757 80.22137 25383 ft 391 kts 173°
2026-04-30 07:15 14.20097 80.22672 24942 ft 389 kts 173°
2026-04-30 07:16 14.17447 80.23206 24503 ft 387 kts 172°
2026-04-30 07:16 14.14811 80.23737 24068 ft 385 kts 172°
2026-04-30 07:16 14.12187 80.24264 23647 ft 383 kts 172°
2026-04-30 07:16 14.09578 80.24789 23170 ft 382 kts 172°
2026-04-30 07:17 14.06975 80.25314 22677 ft 380 kts 172°
2026-04-30 07:17 14.03557 80.26001 22101 ft 375 kts 172°
2026-04-30 07:17 13.99295 80.26857 21399 ft 370 kts 171°
2026-04-30 07:18 13.96782 80.27362 20985 ft 367 kts 171°
2026-04-30 07:18 13.94283 80.27864 20572 ft 364 kts 171°
2026-04-30 07:18 13.91836 80.28355 20164 ft 361 kts 171°
2026-04-30 07:18 13.89380 80.28848 19755 ft 359 kts 170°
2026-04-30 07:19 13.86933 80.29340 19352 ft 357 kts 170°
2026-04-30 07:19 13.84501 80.29829 18944 ft 355 kts 169°
2026-04-30 07:19 13.82084 80.30313 18540 ft 353 kts 169°
2026-04-30 07:19 13.79682 80.30796 18138 ft 352 kts 169°
2026-04-30 07:20 13.77277 80.31277 17672 ft 350 kts 168°
2026-04-30 07:20 13.74893 80.31755 17251 ft 348 kts 168°
2026-04-30 07:20 13.72532 80.32228 16848 ft 345 kts 168°
2026-04-30 07:20 13.70177 80.32700 16442 ft 342 kts 168°
2026-04-30 07:21 13.67849 80.33167 16044 ft 340 kts 168°
2026-04-30 07:21 13.65541 80.33620 15723 ft 334 kts 171°
2026-04-30 07:21 13.63222 80.33560 15263 ft 335 kts 192°
2026-04-30 07:21 13.60974 80.32992 14904 ft 332 kts 193°
2026-04-30 07:22 13.56539 80.31863 14146 ft 328 kts 193°
2026-04-30 07:22 13.54322 80.31287 13761 ft 327 kts 193°
2026-04-30 07:22 13.52115 80.30710 13338 ft 326 kts 193°
2026-04-30 07:23 13.49922 80.30137 12915 ft 325 kts 193°
2026-04-30 07:23 13.47739 80.29565 12520 ft 323 kts 193°
2026-04-30 07:23 13.45563 80.29016 12129 ft 321 kts 188°
2026-04-30 07:23 13.43387 80.28994 11731 ft 316 kts 171°
2026-04-30 07:24 13.41220 80.29338 11378 ft 313 kts 169°
2026-04-30 07:24 13.39084 80.29700 11030 ft 310 kts 169°
2026-04-30 07:24 13.36972 80.30052 10696 ft 307 kts 169°
2026-04-30 07:24 13.34873 80.30395 10380 ft 303 kts 169°
2026-04-30 07:25 13.32801 80.30731 10069 ft 300 kts 169°
2026-04-30 07:25 13.30722 80.31065 9534 ft 304 kts 169°
2026-04-30 07:25 13.28610 80.31405 8920 ft 308 kts 169°
2026-04-30 07:25 13.26782 80.31840 8381 ft 307 kts 155°
2026-04-30 07:26 13.25239 80.32762 7952 ft 306 kts 142°
2026-04-30 07:26 13.23572 80.34132 7370 ft 305 kts 139°
2026-04-30 07:26 13.21960 80.35520 6865 ft 300 kts 139°
2026-04-30 07:26 13.20405 80.36872 6346 ft 295 kts 139°
2026-04-30 07:27 13.18855 80.38238 5795 ft 291 kts 139°
2026-04-30 07:27 13.17346 80.39598 5244 ft 288 kts 139°
2026-04-30 07:27 13.15847 80.40950 4699 ft 284 kts 144°
2026-04-30 07:27 13.14089 80.41771 4142 ft 274 kts 172°
2026-04-30 07:28 13.12238 80.41691 3628 ft 264 kts 199°
2026-04-30 07:28 13.10660 80.40828 3116 ft 254 kts 217°
2026-04-30 07:28 13.09254 80.39736 2465 ft 253 kts 218°
2026-04-30 07:28 13.08068 80.38777 2360 ft 243 kts 219°
2026-04-30 07:29 13.06865 80.37540 2264 ft 245 kts 236°
2026-04-30 07:29 13.06148 80.36043 2250 ft 229 kts 248°
2026-04-30 07:29 13.05635 80.34583 2283 ft 208 kts 249°
2026-04-30 07:29 13.05132 80.33214 2247 ft 203 kts 246°
2026-04-30 07:30 13.04130 80.30538 2260 ft 200 kts 246°
2026-04-30 07:30 13.03633 80.29213 2118 ft 190 kts 247°
2026-04-30 07:30 13.03193 80.28029 1948 ft 168 kts 245°
2026-04-30 07:31 13.02786 80.26953 1840 ft 157 kts 246°
2026-04-30 07:31 13.02403 80.25927 1608 ft 150 kts 245°
2026-04-30 07:31 13.02039 80.24957 1386 ft 141 kts 244°
2026-04-30 07:31 13.01676 80.24000 1180 ft 145 kts 245°
2026-04-30 07:32 13.01338 80.23085 1030 ft 146 kts 246°
2026-04-30 07:32 13.00973 80.22112 821 ft 145 kts 244°
2026-04-30 07:32 13.00610 80.21159 660 ft 144 kts 246°
2026-04-30 07:32 13.00258 80.20216 502 ft 142 kts 248°
2026-04-30 07:33 12.99928 80.19277 379 ft 138 kts 247°
2026-04-30 07:33 12.99556 80.18367 125 ft 138 kts 249°
2026-04-30 07:33 12.99242 80.17497 53 ft 116 kts 248°
2026-04-30 07:33 12.99044 80.16972 54 ft 47 kts 249°
2026-04-30 07:34 12.98945 80.16716 55 ft 38 kts 249°
2026-04-30 07:34 12.98854 80.16481 54 ft 31 kts 239°
2026-04-30 07:34 12.98745 80.16358 52 ft 15 kts 218°
2026-04-30 07:34 12.98731 80.16348 58 ft 0 kts 216°
2026-04-30 07:35 12.98718 80.16338 80 ft 4 kts 216°
2026-04-30 07:35 12.98687 80.16314 52 ft 8 kts 217°
2026-04-30 07:36 12.98635 80.16274 56 ft 10 kts 218°
2026-04-30 07:36 12.98587 80.16235 52 ft 10 kts 218°
2026-04-30 07:36 12.98547 80.16175 56 ft 11 kts 248°
2026-04-30 07:36 12.98485 80.16136 52 ft 12 kts 163°
2026-04-30 07:37 12.98434 80.16157 55 ft 2 kts 160°
2026-04-30 07:37 12.98432 80.16158 56 ft 0 kts 160°
2026-04-30 07:38 12.98431 80.16159 58 ft 1 kts 160°
2026-04-30 07:38 12.98417 80.16164 52 ft 3 kts 160°
2026-04-30 07:38 12.98387 80.16167 52 ft 6 kts 189°
2026-04-30 07:38 12.98340 80.16164 52 ft 8 kts 168°
2026-04-30 07:39 12.98305 80.16177 57 ft 5 kts 156°
2026-04-30 07:39 12.98298 80.16180 52 ft 0 kts 158°